Jacksonville Craig, FL

3:33 PM EDT on June 26, 2017 (GMT -0400)
Craig Municipal

Weather History for KCRG - September, 2012

Change the Weather History Date:

Monday, September 17, 2012

  Actual Average Record
Temperature  
Mean Temperature 80 °F -  
Max Temperature 88 °F 83 °F 96 °F (2005)
Min Temperature 72 °F 69 °F 60 °F (2001)
Cooling Degree Days 14    
Growing Degree Days 30 (Base 50)    
Moisture  
Dew Point 71 °F    
Average Humidity 75    
Maximum Humidity 91    
Minimum Humidity 59    
Precipitation  
Precipitation 0.01 in - - ()
Sea Level Pressure  
Sea Level Pressure 29.99 in    
Wind  
Wind Speed 4 mph (SSE)    
Max Wind Speed 15 mph    
Max Gust Speed 22 mph    
Visibility 10 miles    
Events      
Averages and records for this station are not official NWS values.
T = Trace of Precipitation, MM = Missing Value Source: NWS Daily Summary

Daily Weather History Graph

Daily Weather History Graph

Search for Another Location

Airport or City:

Trip Planner

Search our weather history database for the weather conditions in past years. The results will help you decide how hot, cold, wet, or windy it might be!

Date:

Astronomy

Sep. 17, 2012 Rise Set
Actual Time 7:11 AM EDT 7:28 PM EDT
Civil Twilight 6:47 AM EDT 7:52 PM EDT
Nautical Twilight 6:19 AM EDT 8:20 PM EDT
Astronomical Twilight 5:51 AM EDT 8:48 PM EDT
Moon 8:47 AM EDT (9/17) 8:23 PM EDT (9/17)
Length of Visible Light 13h 04m
Length of Day
12h 16m
Waxing Crescent, 3% of the Moon is Illuminated
Sep 17
Waxing Crescent
Sep 22
First Quarter
Sep 29
Full
Oct 8
Last Quarter
Oct 15
New

Hourly Weather History & Observations

Time (EDT) Temp. Heat Index Dew Point Humidity Pressure Visibility Wind Dir Wind Speed Gust Speed Precip Events Conditions
12:53 AM 73.9 °F - 71.1 °F 91% 30.05 in 10.0 mi Calm Calm - N/A   Clear
1:53 AM 73.9 °F - 70.0 °F 87% 30.04 in 10.0 mi Calm Calm - N/A   Clear
2:53 AM 73.0 °F - 70.0 °F 90% 30.03 in 10.0 mi Calm Calm - N/A   Clear
3:53 AM 73.0 °F - 69.1 °F 87% 30.02 in 10.0 mi Calm Calm - N/A   Clear
4:53 AM 72.0 °F - 69.1 °F 91% 30.01 in 10.0 mi Calm Calm - N/A   Clear
5:53 AM 72.0 °F - 69.1 °F 91% 30.01 in 10.0 mi Calm Calm - N/A   Clear
6:53 AM 72.0 °F - 69.1 °F 91% 30.02 in 10.0 mi Calm Calm - 0.01 in   Clear
7:53 AM 73.0 °F - 70.0 °F 90% 30.02 in 10.0 mi Calm Calm - N/A   Clear
8:53 AM 78.1 °F - 73.0 °F 84% 30.04 in 10.0 mi Calm Calm - N/A   Mostly Cloudy
9:12 AM 78.8 °F - 73.4 °F 83% 30.04 in 10.0 mi SSE 3.5 mph - N/A   Scattered Clouds
9:53 AM 82.0 °F 86.7 °F 72.0 °F 71% 30.04 in 10.0 mi SSE 9.2 mph - N/A   Clear
10:53 AM 84.9 °F 89.4 °F 70.0 °F 61% 30.04 in 10.0 mi SSE 10.4 mph - N/A   Mostly Cloudy
11:53 AM 86.0 °F 90.7 °F 70.0 °F 59% 30.03 in 10.0 mi SSE 8.1 mph - N/A   Scattered Clouds
12:53 PM 86.0 °F 90.7 °F 70.0 °F 59% 30.01 in 10.0 mi SE 11.5 mph 20.7 mph N/A   Scattered Clouds
1:53 PM 87.1 °F 92.8 °F 71.1 °F 59% 29.99 in 10.0 mi SE 13.8 mph 21.9 mph N/A   Partly Cloudy
2:53 PM 87.1 °F 92.8 °F 71.1 °F 59% 29.96 in 10.0 mi SE 15.0 mph 20.7 mph N/A   Partly Cloudy
3:53 PM 87.1 °F 92.8 °F 71.1 °F 59% 29.93 in 10.0 mi SE 15.0 mph 21.9 mph N/A   Partly Cloudy
4:53 PM 84.0 °F 89.6 °F 72.0 °F 67% 29.94 in 10.0 mi SSE 12.7 mph 20.7 mph N/A   Partly Cloudy
5:53 PM 84.0 °F 89.0 °F 71.1 °F 65% 29.92 in 10.0 mi SE 10.4 mph - N/A   Partly Cloudy
6:53 PM 82.0 °F 86.3 °F 71.1 °F 69% 29.92 in 10.0 mi SE 9.2 mph 18.4 mph N/A   Clear
7:53 PM 81.0 °F 84.9 °F 71.1 °F 72% 29.93 in 10.0 mi SSE 12.7 mph - N/A   Mostly Cloudy
8:53 PM 81.0 °F 84.9 °F 71.1 °F 72% 29.94 in 10.0 mi SSE 10.4 mph - N/A   Clear
9:53 PM 80.1 °F 83.2 °F 70.0 °F 71% 29.93 in 10.0 mi SSE 9.2 mph - N/A   Clear
10:53 PM 80.1 °F 83.2 °F 70.0 °F 71% 29.95 in 10.0 mi SSE 8.1 mph - N/A   Clear
11:53 PM 80.1 °F 83.6 °F 71.1 °F 74% 29.94 in 10.0 mi South 9.2 mph - N/A   Overcast